This is the latest recevied weather packets stored in our database for station/object SQ9SMC-13. If no packets are shown the sender has not sent any weather packets the latest 10 day(s).
| Time | Temp. | Humidity | Pressure | Rain* | Wind** | Luminosity | Snow |
|---|---|---|---|---|---|---|---|
| 1777241405 | -2.78° C | 86% | 1025.5 hPa | 0 mm | - | 0 W/m² | - |
| 1777240803 | -2.78° C | 85% | 1025.4 hPa | 0 mm | - | 0 W/m² | - |
| 1777240505 | -2.22° C | 85% | 1025.5 hPa | 0 mm | - | 0 W/m² | - |
| 1777240204 | -2.22° C | 84% | 1025.5 hPa | 0 mm | - | 0 W/m² | - |
| 1777239903 | -2.22° C | 84% | 1025.4 hPa | 0 mm | - | 0 W/m² | - |
| 1777239603 | -2.22° C | 84% | 1025.4 hPa | 0 mm | - | 0 W/m² | - |
| 1777239306 | -2.22° C | 84% | 1025.3 hPa | 0 mm | - | 0 W/m² | - |
| 1777239003 | -2.22° C | 84% | 1025.5 hPa | 0 mm | - | 0 W/m² | - |
| 1777238703 | -1.67° C | 84% | 1025.3 hPa | 0 mm | - | 0 W/m² | - |
| 1777238403 | -1.67° C | 83% | 1025.3 hPa | 0 mm | - | 0 W/m² | - |
| 1777238104 | -1.67° C | 83% | 1025.4 hPa | 0 mm | - | 0 W/m² | - |
| 1777237804 | -2.22° C | 81% | 1025.3 hPa | 0 mm | - | 0 W/m² | - |
| 1777237504 | -1.67° C | 80% | 1025.4 hPa | 0 mm | - | 0 W/m² | - |
| 1777237203 | -1.67° C | 80% | 1025.5 hPa | 0 mm | - | 0 W/m² | - |
| 1777236903 | -1.67° C | 81% | 1025.5 hPa | 0 mm | - | 0 W/m² | - |
| 1777236604 | -1.67° C | 80% | 1025.4 hPa | 0 mm | - | 0 W/m² | - |
| 1777236302 | -1.67° C | 79% | 1025.4 hPa | 0 mm | - | 0 W/m² | - |
| 1777236003 | -1.11° C | 78% | 1025.6 hPa | 0 mm | - | 0 W/m² | - |
| 1777235703 | -1.11° C | 77% | 1025.5 hPa | 0 mm | - | 0 W/m² | - |
| 1777235404 | -1.11° C | 77% | 1025.5 hPa | 0 mm | - | 0 W/m² | - |
| 1777235107 | -1.11° C | 77% | 1025.6 hPa | 0 mm | - | 0 W/m² | - |
| 1777234805 | -0.56° C | 75% | 1025.4 hPa | 0 mm | - | 0 W/m² | - |
| 1777234503 | -0.56° C | 74% | 1025.5 hPa | 0 mm | - | 0 W/m² | - |
| 1777234203 | -0.56° C | 73% | 1025.3 hPa | 0 mm | - | 0 W/m² | - |
| 1777233903 | 0° C | 72% | 1025.4 hPa | 0 mm | - | 0 W/m² | - |
* Rain latest hour (hover to see other rain measurements)
** Current wind speed in m/s (hover to see current wind gust speed)